AB4KN Weather Reports


Display with metric or nautical units.
time (UTC)temp
F
wind
direction
speed
MPH
gust
MPH
rain 1hr
in
rain 24hr
in
rain mn
in
humidity
%
barometer
mb
20260904010817 86 256 0.0 0.0 0.00 0.00 0.00 62 1021.2
20260904010315 86 256 0.0 0.0 0.00 0.00 0.00 61 1021.4
20260904005809 86 256 0.0 0.0 0.00 0.00 0.00 60 1021.4
20260904005306 87 256 0.0 0.0 0.00 0.00 0.00 60 1021.3
20260904004759 87 256 0.0 0.0 0.00 0.00 0.00 59 1020.9
20260904004256 87 256 0.0 0.0 0.00 0.00 0.00 59 1021.0
20260904003750 87 255 0.0 0.0 0.00 0.00 0.00 58 1021.1
20260904003247 88 254 0.0 0.0 0.00 0.00 0.00 58 1021.0
20260904002742 88 254 0.0 0.0 0.00 0.00 0.00 57 1021.2
20260904002239 89 254 0.0 0.0 0.00 0.00 0.00 56 1021.3
20260904001738 89 254 0.0 0.0 0.00 0.00 0.00 55 1020.9
20260904001232 90 254 0.0 0.0 0.00 0.00 0.00 55 1021.0
20260904000727 91 254 0.0 0.0 0.00 0.00 0.00 53 1021.0
20260904000222 91 254 0.0 0.0 0.00 0.00 0.00 51 1020.7
20260903235721 91 254 0.0 0.0 0.00 0.00 0.00 51 1020.8
20260903235218 92 254 0.0 0.0 0.00 0.00 0.00 50 1020.8
20260903234712 92 255 0.0 0.0 0.00 0.00 0.00 49 1020.5
20260903234209 92 255 0.0 0.0 0.00 0.00 0.00 48 1020.8
20260903233704 93 265 0.0 0.0 0.00 0.00 0.00 48 1020.8
20260903233200 93 244 0.0 0.0 0.00 0.00 0.00 47 1020.5
20260903232659 93 255 0.0 0.0 0.00 0.00 0.00 47 1020.4
20260903232155 93 284 0.0 0.0 0.00 0.00 0.00 47 1020.4
20260903231654 94 284 0.0 0.0 0.00 0.00 0.00 46 1020.2
20260903231149 94 255 0.0 0.0 0.00 0.00 0.00 45 1020.3
20260903230645 95 255 0.0 0.0 0.00 0.00 0.00 44 1020.4
20260903230144 95 284 0.0 0.0 0.00 0.00 0.00 44 1020.1
20260903225641 95 177 0.0 0.0 0.00 0.00 0.00 43 1020.1
20260903225137 95 176 0.0 0.0 0.00 0.00 0.00 43 1020.2
20260903224633 95 206 0.0 0.0 0.00 0.00 0.00 43 1020.2
20260903224129 96 257 2.0 3.0 0.00 0.00 0.00 43 1020.0
20260903223624 96 119 0.0 0.0 0.00 0.00 0.00 43 1020.3
20260903223122 96 234 0.0 0.0 0.00 0.00 0.00 43 1020.0
20260903222617 96 214 0.0 0.0 0.00 0.00 0.00 44 1020.1
20260903222116 96 288 0.0 0.0 0.00 0.00 0.00 44 1020.1
20260903221612 96 258 0.0 0.0 0.00 0.00 0.00 43 1019.9
20260903221109 96 263 0.0 0.0 0.00 0.00 0.00 43 1020.0
20260903220609 96 194 0.0 0.0 0.00 0.00 0.00 44 1020.1
20260903215602 96 253 1.0 2.0 0.00 0.00 0.00 44 1020.2
20260903215056 96 301 1.0 2.0 0.00 0.00 0.00 44 1020.2
20260903214556 97 135 0.0 0.0 0.00 0.00 0.00 43 1020.1
20260903214051 97 282 0.0 0.0 0.00 0.00 0.00 44 1020.1
20260903213546 97 122 3.0 9.0 0.00 0.00 0.00 44 1020.0
20260903213042 97 273 0.0 0.0 0.00 0.00 0.00 45 1020.2
20260903212538 96 281 0.0 0.0 0.00 0.00 0.00 45 1020.2
20260903212033 97 243 0.0 0.0 0.00 0.00 0.00 44 1020.3
20260903211528 98 158 5.0 7.0 0.00 0.00 0.00 43 1020.5
20260903211024 97 261 0.0 0.0 0.00 0.00 0.00 44 1020.4
20260903210519 97 263 0.0 0.0 0.00 0.00 0.00 45 1020.5
20260903210015 97 181 0.0 0.0 0.00 0.00 0.00 44 1020.4
20260903205514 97 248 0.0 0.0 0.00 0.00 0.00 44 1020.3
20260903205009 97 188 3.0 7.0 0.00 0.00 0.00 44 1020.6
20260903204504 97 228 2.0 2.0 0.00 0.00 0.00 43 1020.6
20260903204000 97 147 0.0 0.0 0.00 0.00 0.00 43 1020.6
20260903203455 98 302 0.0 0.0 0.00 0.00 0.00 44 1020.5
20260903202954 97 280 0.0 0.0 0.00 0.00 0.00 44 1020.7
20260903202451 97 130 1.0 5.0 0.00 0.00 0.00 43 1020.9
20260903201945 96 126 0.0 0.0 0.00 0.00 0.00 44 1020.9
20260903201440 97 244 0.0 0.0 0.00 0.00 0.00 44 1020.8
20260903200939 98 161 4.0 5.0 0.00 0.00 0.00 44 1021.0
20260903200434 98 333 0.0 0.0 0.00 0.00 0.00 43 1021.1
20260903195929 97 320 0.0 0.0 0.00 0.00 0.00 43 1021.4
20260903195426 96 255 0.0 0.0 0.00 0.00 0.00 44 1021.3
20260903194920 97 280 0.0 0.0 0.00 0.00 0.00 46 1021.2
20260903194416 97 83 3.0 3.0 0.00 0.00 0.00 43 1021.4
20260903193911 96 280 0.0 0.0 0.00 0.00 0.00 44 1021.4
20260903193408 96 271 0.0 0.0 0.00 0.00 0.00 44 1021.4
20260903192902 96 325 2.0 2.0 0.00 0.00 0.00 45 1021.6
20260903192358 97 310 0.0 0.0 0.00 0.00 0.00 44 1021.7
20260903191854 97 188 0.0 0.0 0.00 0.00 0.00 44 1021.4
20260903191350 97 227 3.0 3.0 0.00 0.00 0.00 44 1021.6
20260903190849 96 267 0.0 0.0 0.00 0.00 0.00 45 1021.8
20260903190344 95 163 3.0 3.0 0.00 0.00 0.00 46 1021.8
20260903185843 96 281 0.0 0.0 0.00 0.00 0.00 48 1021.7
20260903185338 94 285 0.0 0.0 0.00 0.00 0.00 49 1021.8
20260903184835 94 308 0.0 0.0 0.00 0.00 0.00 49 1021.9
20260903184331 94 288 0.0 0.0 0.00 0.00 0.00 50 1022.1
20260903183826 95 272 0.0 0.0 0.00 0.00 0.00 49 1022.1
20260903183321 95 276 0.0 0.0 0.00 0.00 0.00 48 1022.2
20260903182820 95 239 1.0 2.0 0.00 0.00 0.00 48 1022.2
20260903182320 95 134 0.0 2.0 0.00 0.00 0.00 46 1022.5
20260903181820 95 268 0.0 0.0 0.00 0.00 0.00 49 1022.3
20260903181315 95 304 0.0 0.0 0.00 0.00 0.00 49 1022.3
20260903180814 96 197 3.0 3.0 0.00 0.00 0.00 48 1022.3
20260903180313 96 265 0.0 0.0 0.00 0.00 0.00 48 1022.4
20260903175808 98 184 0.0 0.0 0.00 0.00 0.00 44 1022.1
20260903175307 98 131 4.0 9.0 0.00 0.00 0.00 44 1022.5
20260903174801 97 223 0.0 0.0 0.00 0.00 0.00 46 1022.5
20260903174257 97 175 4.0 7.0 0.00 0.00 0.00 47 1022.6
20260903173751 97 253 0.0 0.0 0.00 0.00 0.00 48 1022.7
20260903173247 96 172 0.0 0.0 0.00 0.00 0.00 47 1022.7
20260903172742 97 188 0.0 0.0 0.00 0.00 0.00 47 1022.7
20260903172237 96 49 0.0 0.0 0.00 0.00 0.00 48 1022.7
20260903171732 96 147 5.0 9.0 0.00 0.00 0.00 48 1023.0
20260903171228 95 214 5.0 7.0 0.00 0.00 0.00 50 1023.2
20260903170726 96 178 3.0 5.0 0.00 0.00 0.00 49 1022.9
20260903170222 96 139 0.0 0.0 0.00 0.00 0.00 50 1023.1
20260903165720 95 110 0.0 0.0 0.00 0.00 0.00 49 1023.2
20260903165215 94 261 0.0 0.0 0.00 0.00 0.00 52 1023.1
20260903164709 95 266 0.0 0.0 0.00 0.00 0.00 52 1023.4
20260903164206 94 217 2.0 3.0 0.00 0.00 0.00 52 1023.3
20260903163705 95 300 0.0 0.0 0.00 0.00 0.00 52 1023.6
20260903163202 95 211 1.0 2.0 0.00 0.00 0.00 52 1023.5
20260903162657 95 296 0.0 0.0 0.00 0.00 0.00 52 1023.5
20260903162153 95 262 0.0 2.0 0.00 0.00 0.00 52 1023.6
20260903161649 95 222 0.0 0.0 0.00 0.00 0.00 52 1023.6
20260903161143 95 238 1.0 2.0 0.00 0.00 0.00 53 1023.7
20260903160639 94 135 0.0 0.0 0.00 0.00 0.00 53 1023.9
20260903160133 93 292 0.0 0.0 0.00 0.00 0.00 54 1023.9
20260903155632 92 150 2.0 3.0 0.00 0.00 0.00 55 1023.9
20260903155127 92 303 0.0 0.0 0.00 0.00 0.00 60 1024.1
20260903154623 92 292 0.0 0.0 0.00 0.00 0.00 59 1023.7
20260903154119 91 309 0.0 0.0 0.00 0.00 0.00 60 1024.0
20260903153615 91 265 0.0 0.0 0.00 0.00 0.00 61 1024.1
20260903153110 91 254 0.0 2.0 0.00 0.00 0.00 61 1023.8
20260903152606 91 293 0.0 0.0 0.00 0.00 0.00 63 1023.8
20260903152103 90 248 0.0 0.0 0.00 0.00 0.00 62 1023.9
20260903151602 89 264 1.0 2.0 0.00 0.00 0.00 62 1023.9
20260903151057 89 287 0.0 0.0 0.00 0.00 0.00 63 1023.8
20260903150556 88 287 0.0 0.0 0.00 0.00 0.00 64 1023.9
20260903150052 88 284 0.0 0.0 0.00 0.00 0.00 64 1023.8
20260903145551 88 287 0.0 0.0 0.00 0.00 0.00 65 1023.8
20260903145046 88 283 0.0 0.0 0.00 0.00 0.00 66 1023.8
20260903144545 88 287 0.0 0.0 0.00 0.00 0.00 65 1023.7
20260903144042 87 246 0.0 2.0 0.00 0.00 0.00 65 1023.7
20260903143538 87 275 0.0 0.0 0.00 0.00 0.00 67 1023.7
20260903143033 86 275 0.0 0.0 0.00 0.00 0.00 68 1023.7
20260903142528 86 275 0.0 0.0 0.00 0.00 0.00 68 1023.7
20260903142026 86 275 0.0 0.0 0.00 0.00 0.00 69 1023.9
20260903141521 85 275 0.0 0.0 0.00 0.00 0.00 69 1023.9
20260903141016 85 265 0.0 0.0 0.00 0.00 0.00 71 1023.9
20260903140511 84 274 0.0 0.0 0.00 0.00 0.00 71 1023.7
20260903140007 84 274 0.0 0.0 0.00 0.00 0.00 73 1023.7
20260903135502 84 274 0.0 0.0 0.00 0.00 0.00 74 1023.8
20260903134956 83 247 0.0 0.0 0.00 0.00 0.00 73 1023.8
20260903134455 83 247 0.0 0.0 0.00 0.00 0.00 76 1024.0
20260903133952 83 247 0.0 0.0 0.00 0.00 0.00 76 1023.9
20260903133449 83 246 0.0 0.0 0.00 0.00 0.00 75 1023.7
20260903132944 83 246 0.0 0.0 0.00 0.00 0.00 74 1023.9
20260903132440 83 246 0.0 0.0 0.00 0.00 0.00 74 1023.8
20260903131939 82 246 0.0 0.0 0.00 0.00 0.00 75 1023.9
20260903131435 82 246 0.0 0.0 0.00 0.00 0.00 75 1023.9
20260903130933 81 246 0.0 0.0 0.00 0.00 0.00 76 1023.9
20260903130429 81 257 0.0 0.0 0.00 0.00 0.00 79 1023.8
20260903125928 80 262 0.0 0.0 0.00 0.00 0.00 80 1024.0
20260903125427 80 262 0.0 0.0 0.00 0.00 0.00 81 1023.9
20260903124927 80 262 0.0 0.0 0.00 0.00 0.00 81 1023.9
20260903124422 80 261 0.0 0.0 0.00 0.00 0.00 82 1024.1
20260903123921 79 261 0.0 0.0 0.00 0.00 0.00 81 1023.9
20260903123416 78 262 0.0 0.0 0.00 0.00 0.00 84 1024.1
20260903122915 78 262 0.0 0.0 0.00 0.00 0.00 86 1023.7
20260903122409 77 262 0.0 0.0 0.00 0.00 0.00 86 1023.9
20260903121908 77 262 0.0 0.0 0.00 0.00 0.00 86 1023.7
20260903121404 77 262 0.0 0.0 0.00 0.00 0.00 86 1023.8
20260903120900 77 262 0.0 0.0 0.00 0.00 0.00 86 1023.8
20260903120358 77 262 0.0 0.0 0.00 0.00 0.00 86 1023.9
20260903115857 77 262 0.0 0.0 0.00 0.00 0.00 86 1023.7
20260903115352 76 262 0.0 0.0 0.00 0.00 0.00 86 1023.5
20260903114852 76 262 0.0 0.0 0.00 0.00 0.00 86 1023.6
20260903114348 76 262 0.0 0.0 0.00 0.00 0.00 86 1023.6
20260903113843 76 262 0.0 0.0 0.00 0.00 0.00 86 1023.3
20260903113338 76 262 0.0 0.0 0.00 0.00 0.00 86 1023.4
20260903112835 76 262 0.0 0.0 0.00 0.00 0.00 86 1023.4
20260903112330 76 262 0.0 0.0 0.00 0.00 0.00 86 1023.3
20260903111829 76 262 0.0 0.0 0.00 0.00 0.00 86 1023.4
20260903111329 77 262 0.0 0.0 0.00 0.00 0.00 86 1023.4
20260903110826 77 262 0.0 0.0 0.00 0.00 0.00 86 1023.3
20260903110320 77 262 0.0 0.0 0.00 0.00 0.00 86 1023.0
20260903105815 77 262 0.0 0.0 0.00 0.00 0.00 86 1023.0
20260903105310 76 262 0.0 0.0 0.00 0.00 0.00 86 1023.1
20260903104809 76 262 0.0 0.0 0.00 0.00 0.00 86 1023.2
20260903104304 76 262 0.0 0.0 0.00 0.00 0.00 86 1023.2
20260903103801 77 262 0.0 0.0 0.00 0.00 0.00 86 1022.9
20260903103256 77 262 0.0 0.0 0.00 0.00 0.00 85 1023.0
20260903102752 77 262 0.0 0.0 0.00 0.00 0.00 86 1023.0
20260903102246 77 262 0.0 0.0 0.00 0.00 0.00 85 1022.5
20260903101745 77 262 0.0 0.0 0.00 0.00 0.00 85 1022.7
20260903101241 77 262 0.0 0.0 0.00 0.00 0.00 85 1022.7
20260903100736 77 261 0.0 0.0 0.00 0.00 0.00 85 1022.9
20260903100236 77 261 0.0 0.0 0.00 0.00 0.00 85 1022.7
20260903095733 77 261 0.0 0.0 0.00 0.00 0.00 85 1022.5
20260903095228 77 261 0.0 0.0 0.00 0.00 0.00 85 1022.7
20260903094723 77 261 0.0 0.0 0.00 0.00 0.00 85 1022.7
20260903094218 77 262 0.0 0.0 0.00 0.00 0.00 85 1022.6
20260903093714 77 261 0.0 0.0 0.00 0.00 0.00 84 1022.6
20260903093209 77 261 0.0 0.0 0.00 0.00 0.00 84 1023.0
20260903092708 77 261 0.0 0.0 0.00 0.00 0.00 84 1022.6
20260903092204 77 261 0.0 0.0 0.00 0.00 0.00 84 1022.7
20260903091702 77 261 0.0 0.0 0.00 0.00 0.00 84 1022.9
20260903091156 77 261 0.0 0.0 0.00 0.00 0.00 84 1022.9
20260903090652 77 261 0.0 0.0 0.00 0.00 0.00 84 1023.1
20260903090150 77 261 0.0 0.0 0.00 0.00 0.00 84 1022.7
20260903085650 78 261 0.0 0.0 0.00 0.00 0.00 84 1023.0
20260903085146 78 261 0.0 0.0 0.00 0.00 0.00 84 1022.9
20260903084643 78 261 0.0 0.0 0.00 0.00 0.00 84 1022.6
20260903084137 77 261 0.0 0.0 0.00 0.00 0.00 84 1022.9
20260903083633 78 261 0.0 0.0 0.00 0.00 0.00 84 1023.0
20260903083128 78 261 0.0 0.0 0.00 0.00 0.00 84 1023.0
20260903082628 78 261 0.0 0.0 0.00 0.00 0.00 84 1022.9
20260903082124 78 261 0.0 0.0 0.00 0.00 0.00 83 1022.9
20260903081618 78 261 0.0 0.0 0.00 0.00 0.00 83 1022.7
20260903081114 78 261 0.0 0.0 0.00 0.00 0.00 83 1022.4
20260903080610 78 261 0.0 0.0 0.00 0.00 0.00 82 1022.7
20260903080108 79 261 0.0 0.0 0.00 0.00 0.00 81 1022.6
20260903075601 79 261 0.0 0.0 0.00 0.00 0.00 81 1023.1
20260903075056 78 261 0.0 0.0 0.00 0.00 0.00 82 1022.9
20260903074556 78 261 0.0 0.0 0.00 0.00 0.00 82 1022.7
20260903074050 78 261 0.0 0.0 0.00 0.00 0.00 83 1022.7
20260903073546 78 261 0.0 0.0 0.00 0.00 0.00 82 1023.0
20260903073042 78 261 0.0 0.0 0.00 0.00 0.00 83 1022.7
20260903072537 79 261 0.0 0.0 0.00 0.00 0.00 82 1022.7
20260903072033 79 261 0.0 0.0 0.00 0.00 0.00 81 1022.6
20260903071530 79 261 0.0 0.0 0.00 0.00 0.00 81 1022.6
20260903071025 79 261 0.0 0.0 0.00 0.00 0.00 80 1022.5
20260903070524 80 261 0.0 0.0 0.00 0.00 0.00 79 1022.5
20260903070020 80 261 0.0 0.0 0.00 0.00 0.00 79 1022.7
20260903065514 80 261 0.0 0.0 0.00 0.00 0.00 79 1022.7
20260903065014 80 261 0.0 0.0 0.00 0.00 0.00 78 1022.7
20260903064514 80 261 0.0 0.0 0.00 0.00 0.00 78 1022.7
20260903064009 80 261 0.0 0.0 0.00 0.00 0.00 78 1022.6
20260903063504 80 261 0.0 0.0 0.00 0.00 0.00 78 1022.9
20260903062959 80 261 0.0 0.0 0.00 0.00 0.00 78 1023.0
20260903062454 80 261 0.0 0.0 0.00 0.00 0.00 77 1023.1
20260903061950 80 261 0.0 0.0 0.00 0.00 0.00 78 1023.2
20260903061444 80 261 0.0 0.0 0.00 0.00 0.00 78 1022.9
20260903060940 80 261 0.0 0.0 0.00 0.00 0.00 78 1022.7
20260903060434 79 261 0.0 0.0 0.00 0.00 0.00 79 1022.9
20260903055933 79 261 0.0 0.0 0.00 0.00 0.00 79 1022.9
20260903055431 80 261 0.0 0.0 0.00 0.00 0.00 79 1023.0
20260903054931 80 261 0.0 0.0 0.00 0.00 0.00 79 1022.6
20260903054426 80 261 0.0 0.0 0.00 0.00 0.00 79 1023.2
20260903053922 80 261 0.0 0.0 0.00 0.00 0.00 79 1023.1
20260903053421 80 261 0.0 0.0 0.00 0.00 0.00 79 1023.0
20260903052918 80 261 0.0 0.0 0.00 0.00 0.00 79 1023.0
20260903052414 80 261 0.0 0.0 0.00 0.00 0.00 78 1023.0
20260903051909 80 261 0.0 0.0 0.00 0.00 0.00 78 1023.0
20260903051405 80 261 0.0 0.0 0.00 0.00 0.00 78 1023.0
20260903050900 80 261 0.0 0.0 0.00 0.00 0.00 78 1022.9
20260903050358 80 261 0.0 0.0 0.00 0.00 0.00 78 1023.0
20260903045853 80 261 0.0 0.0 0.00 0.00 0.00 78 1023.0
20260903045349 80 261 0.0 0.0 0.00 0.00 0.00 77 1023.1
20260903044846 80 261 0.0 0.0 0.00 0.00 0.00 77 1023.0
20260903044346 81 261 0.0 0.0 0.00 0.00 0.00 77 1022.7
20260903043843 81 261 0.0 0.0 0.00 0.00 0.00 77 1022.7
20260903043337 81 261 0.0 0.0 0.00 0.00 0.00 77 1023.1
20260903042836 81 261 0.0 0.0 0.00 0.00 0.00 76 1022.9
20260903042331 81 261 0.0 0.0 0.00 0.00 0.00 76 1023.2
20260903041827 81 261 0.0 0.0 0.00 0.00 0.00 76 1023.1
20260903041323 81 261 0.0 0.0 0.00 0.00 0.00 75 1023.1
20260903040819 81 261 0.0 0.0 0.00 0.00 0.00 75 1023.0
20260903040317 81 261 0.0 0.0 0.00 0.00 0.00 75 1023.1
20260903035814 81 261 0.0 0.0 0.00 0.00 0.00 75 1023.0
20260903035309 81 261 0.0 0.0 0.00 0.00 0.00 75 1023.2
20260903034804 82 261 0.0 0.0 0.00 0.00 0.00 75 1023.0
20260903034259 82 261 0.0 0.0 0.00 0.00 0.00 75 1022.9
20260903033756 82 261 0.0 0.0 0.00 0.00 0.00 74 1023.1
20260903033250 82 261 0.0 0.0 0.00 0.00 0.00 74 1023.0
20260903032744 82 261 0.0 0.0 0.00 0.00 0.00 74 1023.1
20260903032240 82 261 0.0 0.0 0.00 0.00 0.00 73 1023.2
20260903031736 82 261 0.0 0.0 0.00 0.00 0.00 72 1023.0
20260903031229 82 261 0.0 0.0 0.00 0.00 0.00 73 1023.0
20260903030726 83 261 0.0 0.0 0.00 0.00 0.00 72 1023.2
20260903030221 83 261 0.0 0.0 0.00 0.00 0.00 72 1023.2
20260903025716 83 261 0.0 0.0 0.00 0.00 0.00 72 1023.1
20260903025212 83 261 0.0 0.0 0.00 0.00 0.00 71 1023.1
20260903024711 83 261 0.0 0.0 0.00 0.00 0.00 71 1023.2
20260903024211 83 261 0.0 0.0 0.00 0.00 0.00 71 1023.4
20260903023707 83 261 0.0 0.0 0.00 0.00 0.00 70 1023.1
20260903023202 83 261 0.0 0.0 0.00 0.00 0.00 70 1023.1
20260903022702 84 261 0.0 0.0 0.00 0.00 0.00 70 1023.1
20260903022201 84 261 0.0 0.0 0.00 0.00 0.00 69 1023.0
20260903021700 84 261 0.0 0.0 0.00 0.00 0.00 69 1023.3
20260903021156 84 261 0.0 0.0 0.00 0.00 0.00 68 1023.1
20260903020651 84 261 0.0 0.0 0.00 0.00 0.00 68 1023.3
20260903020151 84 261 0.0 0.0 0.00 0.00 0.00 68 1023.1
20260903015646 84 261 0.0 0.0 0.00 0.00 0.00 67 1022.9
20260903015142 85 261 0.0 0.0 0.00 0.00 0.00 66 1022.9
20260903014636 85 261 0.0 0.0 0.00 0.00 0.00 66 1022.7
20260903014136 85 261 0.0 0.0 0.00 0.00 0.00 65 1022.9
20260903013631 86 261 0.0 0.0 0.00 0.00 0.00 64 1023.2
20260903013131 86 260 0.0 0.0 0.00 0.00 0.00 64 1022.7
20260903012630 87 260 0.0 0.0 0.00 0.00 0.00 62 1022.5
20260903012129 87 258 0.0 0.0 0.00 0.00 0.00 61 1022.6
20260903011629 87 258 0.0 0.0 0.00 0.00 0.00 60 1022.7